Wind_Speed
6 6 6 5 5 6 6 6 5 6 6 7 7 8 8 9 9 10 10 11 12 12 13 13 14 15 15 17 20 19 19 19 18 17 16 15 14 14 13 12 11 10 8
4 4 4 4 4 4 4 4 4 5 5 5 6 6 8 9 9 10 10 11 12 13 13 14 15 15 15 16 19 21 21 20 20 19 19 17 16 15 15 14 13 12 11
3 3 4 3 3 3 4 4 4 4 4 4 5 5 7 8 9 10 10 11 11 12 13 14 15 15 15 15 18 20 22 22 22 21 21 20 19 18 17 17 16 15 13
2 3 3 3 3 3 3 3 3 3 3 4 4 4 6 7 8 9 10 11 11 12 13 14 14 15 15 15 17 19 21 22 24 24 23 23 22 20 19 19 18 17 16
2 2 3 3 3 3 3 3 3 3 3 3 4 4 5 6 7 8 9 10 10 12 13 13 14 14 15 16 17 19 20 21 24 25 26 25 25 23 22 21 21 20 19
2 2 2 2 2 3 3 3 3 3 4 4 4 5 5 6 7 8 9 10 11 12 12 13 14 15 15 16 17 19 21 21 22 25 27 28 28 27 26 25 23 22 22
1 1 2 2 2 2 3 3 3 3 4 4 4 5 5 6 7 8 10 11 12 13 13 14 14 15 16 17 17 18 19 21 21 23 25 28 29 30 29 29 27 26 25
1 0 1 2 2 2 2 3 3 3 3 3 4 4 5 6 7 8 9 10 11 12 13 14 15 15 16 17 18 19 20 21 21 23 24 26 28 30 32 32 31 30 28
1 0 0 1 1 2 3 3 3 3 4 4 5 5 6 7 8 8 9 11 12 12 13 14 15 16 17 18 19 20 20 22 22 23 24 26 27 29 31 33 34 33 32
2 1 1 0 0 1 2 3 4 4 5 6 6 7 7 8 9 10 11 12 13 13 14 16 16 17 17 18 20 20 21 22 23 24 24 25 27 29 30 32 35 36 36
3 2 2 2 2 2 3 4 5 6 7 8 8 9 9 10 11 12 13 14 14 15 16 17 18 19 19 19 20 20 22 22 24 25 26 27 27 29 30 31 34 36 37
4 4 4 4 4 5 6 7 7 8 9 10 11 11 12 13 14 15 15 15 15 16 17 18 19 20 21 22 22 22 23 23 24 26 26 27 28 29 30 31 32 35 38
7 7 7 7 8 9 9 10 10 11 11 12 13 13 14 15 16 16 16 17 18 18 19 19 20 21 22 23 23 24 25 25 26 27 28 29 30 30 31 32 33 34 36
9 10 11 11 11 11 12 13 13 14 14 15 15 15 16 17 18 18 19 20 20 21 20 21 22 22 23 24 24 26 26 27 28 29 29 30 31 32 33 34 34 35 36
13 13 14 14 14 15 16 16 16 17 17 18 18 18 19 19 19 20 21 21 22 23 23 22 22 23 24 25 26 27 28 29 30 31 32 32 33 34 34 35 36 36 37
16 17 17 18 18 18 19 19 20 20 20 20 21 21 21 22 22 22 23 24 24 25 25 26 25 25 25 26 27 28 29 30 30 31 32 34 35 36 37 37 38 38 39
20 20 21 22 22 22 22 22 23 23 23 23 23 23 23 23 24 24 24 25 25 26 26 27 27 27 27 26 27 28 29 30 31 32 33 34 35 37 38 39 40 40 41
24 25 25 25 26 26 26 25 25 25 26 26 26 25 25 25 25 25 26 26 26 27 28 28 29 28 28 28 27 28 28 29 31 32 33 34 35 36 38 39 41 42 43
27 28 28 28 28 28 28 28 28 28 28 28 28 28 28 27 28 28 28 28 28 29 29 29 30 30 30 31 30 30 30 30 31 32 33 35 36 37 38 39 41 42 44
29 30 31 31 31 30 30 30 30 30 30 30 30 30 30 30 30 31 31 31 31 31 31 31 31 32 32 33 33 33 33 33 33 34 35 36 37 38 39 39 41 42 44
31 32 32 33 33 32 32 32 33 33 32 32 32 32 33 33 33 34 34 34 34 33 33 33 33 33 34 35 35 34 34 34 34 35 36 37 38 38 39 40 41 41 43
33 34 34 34 35 35 35 35 36 35 35 35 35 35 36 36 37 37 37 38 37 37 36 36 36 36 36 37 36 36 36 36 36 37 37 38 38 38 39 40 41 42 43
36 36 37 38 38 38 39 39 40 40 39 39 39 39 40 40 40 41 41 41 41 40 40 40 39 39 39 39 39 38 38 38 38 39 38 38 39 40 40 41 41 42 43
39 39 40 41 42 42 43 44 44 45 44 44 44 44 44 44 44 44 45 44 44 43 43 43 42 42 42 42 41 41 40 40 40 40 40 40 40 41 41 42 42 43 44
42 43 43 45 45 45 47 47 48 49 49 48 48 48 48 48 48 48 49 48 47 46 46 46 46 45 45 44 44 43 43 43 42 42 42 41 42 42 42 43 43 43 44
46 47 48 48 49 50 51 51 52 53 53 53 53 53 52 52 52 52 52 51 51 50 50 50 49 48 47 47 46 46 46 45 44 43 44 43 43 43 43 43 44 45 45
Wind_Direction
286 289 292 294 297 294 292 288 286 284 275 265 258 254 255 255 252 254 255 256 251 246 244 246 246 242 238 231 227 225 224 222 221 222 224 224 224 223 223 222 219 216 213
296 300 299 297 302 305 299 295 294 287 280 270 262 254 253 255 256 259 259 258 256 250 247 248 250 250 246 239 233 228 227 224 223 223 224 225 226 226 226 225 223 221 219
310 319 320 315 308 311 310 305 299 295 287 282 275 264 261 260 262 262 265 264 263 257 255 254 255 253 252 245 239 235 231 228 226 225 223 225 226 228 228 227 226 225 223
324 328 335 333 326 319 317 313 308 309 302 298 294 282 270 266 265 263 264 267 267 261 259 259 259 256 255 252 246 240 237 234 230 228 226 225 227 228 229 229 229 228 227
330 336 336 330 327 325 326 325 321 320 312 303 295 289 281 273 268 266 266 268 269 268 264 261 260 260 257 254 249 244 241 237 234 231 229 228 228 229 230 230 230 230 229
322 336 346 342 334 330 332 330 323 317 312 304 295 291 287 278 272 269 269 267 267 269 267 264 263 260 259 258 255 250 244 242 240 237 233 231 230 231 231 232 232 232 232
285 338 12 9 359 347 340 336 333 327 319 312 304 297 292 286 281 278 275 273 271 269 269 268 265 263 261 259 258 255 251 247 245 243 240 236 234 233 233 233 233 233 233
238 358 30 29 29 26 22 12 3 358 354 343 326 312 304 298 292 287 283 280 277 275 272 270 269 266 264 262 260 258 256 253 250 247 245 242 239 236 234 234 234 235 235
221 230 6 32 36 36 30 20 13 7 359 349 337 325 314 306 299 294 291 286 282 280 277 274 271 269 266 264 262 260 258 255 254 252 249 248 246 243 239 235 235 236 236
221 221 229 254 356 11 7 2 359 352 345 337 331 324 317 310 305 299 294 290 286 283 280 276 273 271 270 268 265 262 260 258 255 254 254 253 250 248 246 241 237 236 236
235 238 242 257 285 304 314 318 322 324 324 323 321 317 313 310 307 303 299 293 288 285 281 278 275 273 271 270 268 265 263 261 258 256 255 255 254 252 249 247 243 239 237
248 257 263 271 279 284 290 293 298 303 307 309 310 310 308 308 306 304 301 296 292 288 284 280 276 274 272 270 268 266 264 263 261 259 257 256 256 254 252 250 248 244 240
257 264 270 274 278 282 284 287 289 293 295 297 300 301 302 303 303 303 301 298 295 292 287 283 279 275 273 271 269 267 265 264 262 261 260 258 257 255 253 253 252 249 245
263 267 271 273 276 279 281 283 285 287 288 291 292 294 296 298 299 299 299 298 295 293 289 285 281 278 275 272 270 268 266 265 264 262 261 260 259 257 255 254 253 252 249
265 269 272 273 274 276 279 281 283 285 285 286 287 289 291 293 294 296 297 297 296 294 291 287 284 280 277 275 273 271 269 267 265 263 262 260 259 258 257 255 254 253 251
267 270 272 274 275 277 278 280 282 283 284 285 285 286 287 287 289 291 293 294 294 293 292 289 286 282 279 277 276 275 272 270 268 266 264 262 260 259 257 256 255 253 252
271 272 274 275 276 277 279 280 282 282 283 284 285 285 286 287 287 288 289 291 292 292 292 290 288 285 282 279 277 275 274 272 270 268 267 265 263 261 259 257 255 253 252
273 275 276 277 278 279 280 281 283 283 283 283 284 284 285 285 287 287 288 289 291 290 290 289 288 286 284 282 279 276 274 273 272 271 269 268 266 263 261 259 257 255 253
275 277 278 279 280 282 283 283 283 283 284 284 284 284 285 285 286 287 288 289 289 289 288 287 286 285 284 282 280 278 276 275 274 273 271 270 268 266 264 261 259 257 255
278 280 281 282 283 283 283 283 283 283 284 284 284 285 286 286 286 287 288 289 289 289 288 286 286 285 284 283 281 279 278 277 276 275 273 271 269 267 265 263 261 258 256
280 281 282 283 283 284 284 283 283 283 284 284 285 285 286 286 287 288 288 288 288 288 287 286 285 285 284 283 282 280 279 279 278 276 275 272 270 269 266 264 262 260 258
280 280 281 282 283 284 283 283 283 283 283 284 285 284 285 286 287 287 287 287 286 286 286 286 285 285 284 283 282 281 280 279 279 278 277 275 273 270 268 266 264 261 259
281 281 282 282 283 283 283 284 283 284 283 283 284 284 285 285 286 285 284 284 284 284 284 284 284 284 284 283 282 281 280 279 280 280 279 277 275 272 270 268 266 263 261
281 281 282 284 284 284 284 284 284 285 284 283 284 285 285 284 284 284 283 283 282 282 283 283 283 283 283 283 283 282 281 280 279 279 279 278 276 274 271 269 266 264 262
282 282 282 283 283 283 284 284 284 284 284 284 284 284 283 283 283 282 282 281 281 281 281 281 281 281 281 282 282 281 281 281 280 279 278 278 276 274 272 270 267 264 262
282 283 283 283 283 283 284 284 284 284 284 283 283 282 282 282 282 281 281 280 280 280 280 280 279 279 280 280 281 281 281 280 280 279 278 277 275 274 272 270 268 266 263
Height
5888 5888 5888 5887 5887 5886 5886 5886 5885 5886 5886 5886 5886 5887 5887 5888 5888 5889 5889 5890 5890 5891 5891 5892 5892 5893 5894 5896 5897 5900 5902 5904 5906 5908 5909 5911 5912 5914 5915 5917 5918 5919 5920
5887 5886 5886 5886 5885 5885 5885 5884 5884 5884 5884 5884 5885 5885 5885 5886 5886 5886 5887 5887 5888 5888 5889 5889 5890 5890 5891 5893 5894 5896 5898 5900 5903 5905 5907 5909 5910 5912 5913 5915 5917 5918 5919
5885 5885 5885 5884 5884 5884 5883 5883 5883 5883 5883 5883 5883 5883 5883 5884 5884 5884 5885 5885 5885 5886 5886 5887 5887 5888 5888 5889 5891 5892 5894 5897 5899 5901 5903 5906 5907 5909 5911 5913 5915 5916 5918
5885 5884 5884 5883 5883 5882 5882 5882 5882 5882 5882 5882 5882 5882 5882 5882 5882 5882 5882 5883 5883 5883 5883 5884 5884 5885 5886 5886 5887 5889 5891 5893 5895 5897 5900 5902 5904 5906 5908 5910 5912 5914 5916
5884 5883 5883 5882 5882 5882 5881 5881 5881 5881 5881 5881 5880 5880 5880 5880 5880 5880 5880 5880 5880 5880 5880 5881 5881 5882 5883 5883 5884 5885 5887 5888 5891 5893 5896 5898 5900 5903 5905 5907 5909 5911 5913
5883 5883 5882 5882 5881 5881 5880 5880 5880 5880 5880 5880 5879 5879 5879 5878 5878 5878 5878 5878 5878 5878 5878 5878 5878 5879 5880 5880 5880 5881 5883 5884 5886 5888 5891 5893 5896 5898 5901 5903 5905 5907 5910
5883 5882 5882 5881 5881 5880 5880 5879 5879 5879 5879 5878 5878 5878 5877 5877 5877 5876 5876 5876 5876 5876 5875 5875 5876 5876 5876 5877 5877 5878 5879 5880 5882 5884 5886 5888 5890 5893 5896 5898 5901 5903 5905
5882 5882 5881 5881 5880 5880 5879 5879 5879 5878 5878 5878 5877 5877 5876 5876 5875 5874 5874 5874 5873 5873 5873 5873 5873 5873 5873 5873 5874 5874 5875 5876 5877 5879 5881 5883 5885 5887 5890 5892 5895 5898 5900
5881 5881 5881 5880 5880 5880 5879 5879 5878 5878 5878 5877 5876 5876 5875 5875 5874 5873 5872 5871 5871 5870 5870 5870 5869 5869 5869 5869 5870 5870 5871 5872 5873 5874 5876 5877 5879 5881 5884 5886 5889 5892 5895
5881 5880 5880 5880 5879 5879 5879 5878 5878 5877 5877 5876 5875 5874 5874 5873 5872 5871 5870 5869 5868 5868 5867 5866 5866 5865 5865 5865 5865 5866 5866 5867 5868 5869 5871 5872 5873 5875 5877 5879 5882 5885 5888
5880 5880 5879 5879 5879 5878 5878 5877 5877 5876 5875 5874 5874 5873 5871 5870 5869 5869 5868 5866 5865 5864 5864 5863 5862 5861 5861 5861 5861 5861 5861 5862 5863 5864 5865 5866 5867 5869 5871 5873 5875 5878 5881
5879 5878 5878 5878 5878 5877 5877 5876 5875 5874 5873 5872 5871 5870 5869 5868 5867 5865 5864 5863 5862 5861 5859 5858 5858 5857 5856 5856 5856 5856 5856 5857 5857 5858 5858 5860 5861 5862 5864 5866 5868 5870 5873
5877 5877 5877 5876 5876 5875 5875 5874 5873 5872 5871 5870 5868 5867 5866 5864 5863 5861 5860 5859 5857 5856 5855 5854 5853 5852 5851 5851 5850 5850 5850 5851 5851 5851 5852 5853 5854 5855 5857 5859 5860 5862 5864
5875 5875 5874 5874 5873 5873 5872 5871 5870 5869 5868 5866 5865 5863 5862 5860 5858 5857 5855 5854 5852 5851 5850 5849 5847 5846 5845 5845 5844 5844 5844 5844 5844 5845 5845 5846 5847 5848 5849 5851 5853 5854 5856
5872 5872 5871 5871 5870 5869 5868 5867 5866 5865 5864 5862 5861 5859 5858 5856 5854 5852 5850 5849 5847 5845 5844 5843 5842 5841 5839 5838 5837 5837 5837 5836 5836 5837 5837 5838 5839 5840 5841 5842 5844 5846 5847
5868 5868 5867 5867 5866 5865 5864 5862 5861 5860 5859 5857 5856 5854 5852 5851 5849 5847 5845 5843 5841 5839 5837 5835 5835 5834 5833 5831 5830 5829 5829 5828 5828 5828 5829 5829 5830 5831 5832 5833 5835 5837 5838
5864 5863 5863 5862 5861 5860 5858 5857 5856 5854 5853 5851 5850 5848 5846 5845 5843 5841 5839 5837 5835 5833 5830 5828 5827 5826 5825 5824 5823 5822 5821 5820 5819 5820 5819 5820 5820 5821 5822 5823 5825 5827 5828
5859 5858 5857 5856 5855 5853 5852 5850 5849 5847 5846 5844 5843 5841 5839 5838 5836 5834 5832 5830 5828 5826 5824 5821 5819 5818 5816 5815 5815 5814 5813 5812 5811 5810 5810 5810 5810 5811 5811 5812 5814 5816 5818
5852 5852 5851 5849 5848 5847 5845 5843 5842 5840 5838 5837 5835 5833 5832 5830 5828 5826 5824 5822 5820 5818 5816 5814 5811 5809 5808 5807 5806 5805 5804 5803 5802 5801 5801 5800 5800 5800 5800 5801 5802 5804 5806
5846 5845 5844 5842 5841 5839 5837 5835 5834 5832 5830 5828 5827 5825 5823 5821 5819 5817 5816 5813 5811 5809 5807 5805 5803 5801 5799 5797 5796 5795 5794 5793 5792 5791 5790 5790 5789 5789 5789 5790 5791 5792 5793
5838 5837 5836 5834 5832 5831 5829 5827 5825 5823 5821 5819 5818 5816 5814 5812 5810 5808 5806 5804 5802 5800 5798 5796 5794 5792 5790 5788 5786 5785 5784 5783 5782 5780 5780 5779 5778 5778 5777 5778 5779 5780 5781
5830 5828 5827 5825 5823 5822 5820 5817 5815 5813 5811 5810 5808 5806 5804 5802 5799 5797 5795 5793 5791 5789 5787 5785 5784 5782 5779 5777 5776 5775 5773 5772 5771 5770 5769 5768 5767 5766 5766 5766 5767 5768 5769
5821 5819 5817 5815 5813 5811 5809 5807 5804 5802 5800 5799 5797 5794 5792 5790 5788 5786 5784 5781 5779 5777 5776 5774 5772 5770 5768 5766 5765 5763 5762 5761 5760 5758 5757 5756 5754 5754 5754 5754 5755 5755 5756
5811 5809 5806 5804 5802 5800 5797 5795 5792 5789 5788 5786 5784 5782 5780 5778 5776 5773 5771 5769 5767 5765 5763 5761 5760 5758 5756 5754 5752 5751 5750 5749 5748 5746 5744 5744 5742 5742 5741 5741 5742 5743 5743
5800 5797 5794 5792 5789 5787 5784 5781 5778 5776 5774 5772 5770 5767 5765 5764 5762 5759 5756 5754 5753 5752 5750 5748 5747 5745 5743 5741 5739 5738 5737 5735 5735 5733 5732 5731 5730 5728 5728 5728 5728 5729 5730
5787 5785 5782 5779 5776 5773 5770 5767 5763 5760 5758 5757 5754 5752 5750 5748 5746 5743 5740 5739 5738 5737 5734 5733 5732 5731 5729 5727 5725 5724 5723 5721 5721 5720 5719 5717 5716 5715 5715 5715 5714 5715 5716